Regional Weather Roundup
Issued by NWS

Home | Current Version | Previous Version | Graphics & Text | Print | Product List | Glossary On
Versions: 1 2 3 4 5 6 7 8 9 10 11 12 13 14 15 16 17 18 19 20 21 22 23 24 25 26 27 28 29 30 31 32 33 34 35 36 37 38 39 40 41 42 43 44 45 46 47 48 49 50
000
ASUS45 KBOU 260707
RWRCO

WEATHER ROUNDUP FOR COLORADO
NATIONAL WEATHER SERVICE DENVER/BOULDER CO
1200 AM MST MON JAN 26 2015

NOTE: "FAIR" INDICATES FEW OR NO CLOUDS BELOW 12000 FEET WITH NO
SIGNIFICANT WEATHER AND/OR OBSTRUCTIONS TO VISIBILITY.

COZ001>005-013-030-031-260800-
...NORTHWEST COLORADO...

CITY           SKY/WX    TMP DP  RH WIND       PRES   REMARKS
CRAIG          CLEAR     17  15  92 W3        30.42F
HAYDEN         CLEAR     27  19  74 E12       30.43R WCI  16
MEEKER         CLEAR     22  17  81 NE5       30.41F WCI  16
MOUNT WERNER   NOT AVBL
STEAMBOAT SPGS CLEAR     23  22  93 SW3       30.44F
WALDEN         PTCLDY    21  16  79 SE6       30.42S WCI  14
$$

COZ006>008-011-260800-
...WEST CENTRAL VALLEYS...

CITY           SKY/WX    TMP DP  RH WIND       PRES   REMARKS
GRAND JUNCTION CLEAR     33  24  69 E3        30.36S
MONTROSE       CLEAR     26  20  77 S7        30.39S WCI  18
EAGLE          PTCLDY    25  21  86 CALM      30.49R
RIFLE          CLEAR     27  22  81 S3        30.41S
DELTA          CLEAR     29  22  73 CALM      30.39S
NUCLA          CLEAR     34  23  64 CALM      30.38R
$$

COZ017>023-064>068-260800-
...SOUTHWEST COLORADO...

CITY           SKY/WX    TMP DP  RH WIND       PRES   REMARKS
DURANGO        CLEAR     25  22  88 E3        30.36R
CORTEZ         CLEAR     27  21  78 NE5       30.34R WCI  22
PAGOSA SPRINGS CLEAR     23  17  77 CALM      30.37R
TELLURIDE      PTCLDY    34  17  50 SE10      30.39F WCI  26
WOLF CREEK PAS NOT AVBL
$$

COZ009-010-012-014-032>034-037-058>063-260800-
...CENTRAL COLORADO...

CITY           SKY/WX    TMP DP  RH WIND       PRES   REMARKS
ASPEN          PTCLDY    22  16  78 S6        30.44R WCI  14
BUENA VISTA    PTCLDY    39  21  48 NW21G30   30.37R
COPPER MTN     PTCLDY    30  18  59 W13G21    30.50S WCI  20
BERTHOUD PASS  FAIR      19  14  79 NW26      30.50S WCI   1
COTTONWOOD PAS PTCLDY    43  10  26 W5        30.43R
GUNNISON       PTCLDY     3  -2  78 CALM      30.49R
KREMMLING      CLEAR     18  14  86 CALM      30.49S
LEADVILLE      PTCLDY    23  15  71 NE10      30.45R WCI  12
MONARCH PASS   PTCLDY    32  10  40 E6        30.59S WCI  26
SALIDA         PTCLDY    32  21  63 W5        30.45S WCI  27
SUNLIGHT       CLEAR     30  21  69 CALM        N/A
WILKERSON PASS PTCLDY    34  12  40 N9G24     30.47R WCI  26
$$

COZ069>075-260800-
...SAN LUIS VALLEY/SANGRE DE CRISTO MOUNTAINS...

CITY           SKY/WX    TMP DP  RH WIND       PRES   REMARKS
ALAMOSA        PTCLDY    15  11  83 SW3       30.38R
LA VETA PASS   NOT AVBL
SAGUACHE       PTCLDY    32  23  69 NW21      30.38S WCI  20
$$

COZ035-036-038>040-260800-
...NORTHERN COLORADO FRONT RANGE...

CITY           SKY/WX    TMP DP  RH WIND       PRES   REMARKS
DENVER INTL AP PTCLDY    39  25  57 SW9       30.21S
DMNS CITY PARK   N/A     41  23  48 S7        30.21S
AURORA         PTCLDY    42  23  47 SW8       30.23S
FRONT RANGE AP NOT AVBL
ERIE MUNI ARPT CLEAR     33  26  76 CALM      30.20S
BOULDER MUN AP CLEAR     45  25  45 CALM      30.20S
CENTENNIAL     PTCLDY    35  26  69 CALM      30.23S
BROOMFIELD     CLEAR     46  23  39 W6        30.22F
FORT COLLINS   PTCLDY    36  27  69 SW5       30.21S
LONGMONT       PTCLDY    33  24  70 W5        30.23R WCI  28
$$

COZ041-046-047-076>085-087-088-260800-
...PIKES PEAK/PALMER DIVIDE AND SOUTHERN FOOTHILLS...

CITY           SKY/WX    TMP DP  RH WIND       PRES   REMARKS
COLO. SPRINGS  CLEAR     35  24  64 N7        30.26S WCI  29
A. F. ACADEMY  CLEAR     28  22  79 N7        30.25F WCI  21
ELLICOTT       CLEAR    N/A N/A N/A CALM      30.23F
FALCON         CLEAR     37  23  57 NW10      30.27F
FORT CARSON    CLEAR     34  24  67 NW7       30.23S WCI  27
LIMON          PTCLDY    34  26  72 NW6       30.20F WCI  29
MONUMENT HILL  PTCLDY    36  23  60 W7        30.26F
TRINIDAD       CLEAR     38  24  57 W16       30.26R
$$

COZ042>045-048>051-090-091-260800-
...NORTHEAST COLORADO...

CITY           SKY/WX    TMP DP  RH WIND       PRES   REMARKS
GREELEY ARPT   PTCLDY    30  21  69 NW5       30.19S WCI  25
AKRON          MOCLDY    38  29  70 W15       30.16S
BURLINGTON     CLEAR     37  29  72 W13       30.14F
WRAY           CLEAR     38  32  77 W13       30.11F
STERLING       MOCLDY    45  34  65 NW15      30.13S
HOLYOKE        CLEAR     45  32  61 W15       30.10S
FORT MORGAN    MOCLDY    32  27  83 W6        30.18S WCI  26
$$

COZ086-089-092>099-260800-
...SOUTHEAST COLORADO...

CITY           SKY/WX    TMP DP  RH WIND       PRES   REMARKS
PUEBLO         CLEAR     30  27  88 W3        30.23R
LA JUNTA       CLEAR     36  28  73 SW9       30.21S
LAMAR          CLEAR     34  30  85 SW8       30.17F WCI  27
SPRINGFIELD      N/A     36  27  69 W8        30.20S
$$



USA.gov is the U.S. government's official web portal to all federal, state and local government web resources and services.